Location: Newark
(45.5000°N, 11.4167°E)
Time: 22:41:04
(UTC+00:00)

Vanguard 2 - Pass Details

Date: 22 August 2019
Orbit: 554 x 2937 km, 32.9° (Epoch: 18 September)

Event Time Altitude Azimuth Distance (km) Brightness Sun altitude
Rises 13:36:54 0° 245° (WSW) 3,757 11.8 45.1°
Reaches altitude 10° 13:39:20 10° 237° (WSW) 3,055 11.7 44.7°
Maximum altitude 13:46:27 39° 171° (S) 2,234 10.6 43.7°
Drops below altitude 10° 13:57:40 10° 110° (ESE) 4,808 11.4 42.1°
Sets 14:02:33 0° 104° (ESE) 6,161 11.8 41.4°
